Regional Weather Roundup
Issued by NWS

Home | Current Version | Previous Version | Text Only | Print | Product List | Glossary Off
Versions: 1 2 3 4 5 6 7 8 9 10 11 12 13 14 15 16 17 18 19 20 21 22 23 24 25 26 27 28 29 30 31 32 33 34 35 36 37 38 39 40 41 42 43 44 45 46 47 48 49 50

000
ASUS44 KMEG 260000
RWRTN
TENNESSEE HOURLY STATE WEATHER ROUNDUP
NATIONAL WEATHER SERVICE MEMPHIS TN
700 PM CDT TUE JUL 25 2017

TNZ002-004-019-021-049-052-054-088>092-260100-
WEST TENNESSEE

CITY           SKY/WX    TMP DP  RH WIND       PRES   REMARKS
MEMPHIS INTL   CLOUDY    91  74  57 SW6       30.05R HX 100
NWS MEMPHIS      N/A     90 N/A N/A MISG        N/A
JACKSON        SUNNY     90  78  68 CALM      30.04S HX 104
$$

TNZ008-025-027-028-033-062-065-066-260100-
NORTH MIDDLE TENNESSEE

CITY           SKY/WX    TMP DP  RH WIND       PRES   REMARKS
NASHVILLE      PTSUNNY   89  72  56 N6        30.07S HX  96
CLARKSVILLE    MOSUNNY   84  74  71 N3        30.07R HX  91
SMYRNA         PTCLDY    88  73  61 N6        30.08R HX  95
CROSSVILLE     CLEAR     83  66  56 N5        30.16R
$$

TNZ061-075-076-078-094-096-097-260100-
SOUTH MIDDLE TENNESSEE

CITY           SKY/WX    TMP DP  RH WIND       PRES   REMARKS
TULLAHOMA      CLEAR     84  73  70 SW3       30.11R HX  91
WINCHESTER     CLEAR     81  70  69 CALM      30.10R
MCMINNVILLE    CLEAR     88  75  66 N6        30.10S HX  97
$$

TNZ017-018-042-046-047-260100-
NORTHEAST TENNESSEE

CITY           SKY/WX    TMP DP  RH WIND       PRES   REMARKS
TRI CITIES     PTCLDY    83  67  58 N5        30.13R
$$

TNZ012-013-036-069-073-074-260100-
CENTRAL EAST TENNESSEE

CITY           SKY/WX    TMP DP  RH WIND       PRES   REMARKS
KNOXVILLE      PTCLDY    88  62  41 N7        30.08R
OAK RIDGE      CLEAR     89  63  41 NW5       30.11R HX  90
GATLINBURG     CLEAR     86  63  45 N3        30.09R
$$

TNZ083-085-099-260100-
SOUTHEAST TENNESSEE

CITY           SKY/WX    TMP DP  RH WIND       PRES   REMARKS
CHATTANOOGA    MOCLDY    87  73  62 NW6       30.07S HX  94
$$

SKY/WX REPORTED AS FAIR MEANS FEW OR NO CLOUDS BELOW
12 THOUSAND FEET.





USA.gov is the U.S. government's official web portal to all federal, state and local government web resources and services.